[[{"header":{"parameterUnit":"m.s-1","parameterCategory":2,"la1":30.2991,"la2":30.254,"lo1":-89.0895,"lo2":-89.0444,"dy":0.0017,"dx":0.0017,"nx":28,"ny":28,"refTime":"2024-03-12T21:00:00:Z","depth":"0","parameterNumber":2,"parameterNumberName":"U-component_of_CURRENTS"},"data":[0,0,0,0,0,0,0,0,0,0,0,0,0,0,0,0,0,0,0,0,0,0,0,0,0,0,0,0,0,0,0,0,0,0,0,0,0,0,0,0,0,0,0,0,0,0,0,0,0,0,0,0,0,0,0,0,0,0,-0.1778,-0.1778,0,-0.1838,-0.1838,-0.1839,-0.1855,-0.1854,-0.1854,-0.1853,-0.1829,-0.1828,-0.1828,0,0,0,0,0,0,0,0,0,0,0,0,0,-0.1701,-0.1702,-0.1778,-0.1778,-0.1779,-0.1837,-0.1838,-0.1839,-0.1855,-0.1854,-0.1853,-0.1853,-0.1829,-0.1829,-0.1828,0,0,0,0,0,0,0,0,0,0,0,0,0,-0.1747,-0.1703,-0.1778,-0.1792,-0.1794,-0.1837,-0.1838,-0.184,-0.1855,-0.1854,-0.1853,-0.1852,-0.1829,-0.1829,-0.1828,-0.1844,0,0,-0.1828,-0.1828,0,0,0,0,0,0,0,0,-0.1744,-0.175,-0.1789,-0.1791,-0.1793,-0.1836,-0.1802,-0.1836,-0.1855,-0.1834,-0.1853,-0.1852,-0.1822,-0.1823,-0.184,-0.1843,-0.1842,-0.1828,-0.1828,-0.1828,-0.1828,0,0,0,0,0,0,0,-0.1741,-0.1748,-0.1804,-0.179,-0.1792,-0.1803,-0.1809,-0.181,-0.1832,-0.1836,-0.1837,-0.184,-0.1823,-0.1841,-0.1839,-0.1842,-0.1828,-0.1828,-0.1828,-0.1827,-0.1902,-0.1904,0,0,0,0,0,0,-0.1729,-0.1745,-0.1802,-0.1805,-0.1764,-0.1805,-0.1812,-0.1825,-0.1834,-0.1835,-0.1841,-0.184,-0.1841,-0.184,-0.1838,-0.1897,-0.1828,-0.1827,-0.1827,-0.19,-0.1903,-0.1905,0,0,0,0,0,0,-0.1728,-0.1734,-0.1799,-0.1774,-0.1782,-0.1807,-0.1822,-0.1826,-0.1841,-0.1838,-0.1838,-0.1849,-0.184,-0.1839,-0.1864,-0.1895,-0.1827,-0.1827,-0.1898,-0.1901,-0.1904,-0.1989,0,0,0,0,0,0,-0.1725,-0.1734,-0.1742,-0.1773,-0.1783,-0.1834,-0.1823,-0.1828,-0.1843,-0.1843,-0.1846,-0.1843,-0.184,-0.1865,-0.1864,-0.1893,-0.1827,-0.1895,-0.1899,-0.1903,-0.1984,-0.1995,-0.2004,0,0,0,0,0,-0.1723,-0.1735,-0.1743,-0.1749,-0.1794,-0.1835,-0.1842,-0.1857,-0.1844,-0.1864,-0.1875,-0.1843,-0.1889,-0.1867,-0.1865,-0.1895,-0.1893,-0.1898,-0.1903,-0.1979,-0.1993,-0.2004,0,0,0,0,0,0,-0.1709,-0.1738,-0.1747,-0.1769,-0.1803,-0.1836,-0.1846,-0.1857,-0.1883,-0.1873,-0.187,-0.187,-0.1905,-0.189,-0.1866,-0.193,-0.1885,-0.189,-0.1944,-0.1956,-0.1967,-0.1964,-0.1827,0,0,0,0,0,-0.1709,-0.1723,-0.1761,-0.1778,-0.179,-0.1818,-0.1834,-0.1848,-0.1871,-0.1881,-0.1895,-0.1904,-0.1926,-0.1932,-0.1947,-0.1976,-0.1948,-0.1995,-0.2006,-0.2015,-0.2013,-0.2027,-0.2038,-0.1921,-0.1921,-0.192,0,0,-0.1707,-0.1724,-0.1732,-0.1776,-0.1794,-0.184,-0.1826,-0.1849,-0.1899,-0.1871,-0.1936,-0.1939,-0.1943,-0.1991,-0.2004,-0.1979,-0.203,-0.2021,-0.2028,-0.2022,-0.2033,-0.2044,-0.2054,-0.1924,-0.1923,-0.1923,0,0,-0.1711,-0.1725,-0.1741,-0.1775,-0.1808,-0.1841,-0.1848,-0.1893,-0.1921,-0.198,-0.1979,-0.2009,-0.2038,-0.2065,-0.2075,-0.2149,-0.2086,-0.2142,-0.2189,-0.2203,-0.2212,-0.222,-0.218,-0.2184,-0.2145,-0.2145,-0.2145,0,-0.1706,-0.1742,-0.1754,-0.1788,-0.1821,-0.1844,-0.1888,-0.1932,-0.1989,-0.2022,-0.2007,-0.2083,-0.2083,-0.2147,-0.2174,-0.2172,-0.2142,-0.214,-0.2215,-0.2223,-0.2229,-0.2187,-0.2189,-0.215,-0.2149,-0.2149,-0.2148,0,-0.173,-0.177,-0.178,-0.1841,-0.188,-0.1916,-0.1978,-0.2031,-0.2061,-0.2106,-0.2174,-0.2191,-0.2228,-0.2241,-0.2227,-0.2281,-0.2231,-0.2227,-0.218,-0.2246,-0.2197,-0.2198,-0.2157,-0.2155,-0.2153,-0.2152,0,0,-0.1698,-0.1782,-0.1789,-0.1836,-0.191,-0.195,-0.2035,-0.2125,-0.218,-0.2237,-0.2301,-0.2356,-0.2345,-0.2355,-0.2345,-0.2359,-0.2375,-0.2307,-0.2305,-0.2258,-0.2358,-0.234,-0.2338,-0.2378,-0.2379,-0.238,-0.2297,0,-0.1718,-0.1796,-0.1835,-0.193,-0.198,-0.2041,-0.2125,-0.2206,-0.2264,-0.2336,-0.2365,-0.2411,-0.2395,-0.2396,-0.2416,-0.2374,-0.2385,-0.2395,-0.2307,-0.2304,-0.2274,-0.2343,-0.2258,-0.2179,-0.2298,-0.2298,-0.2298,0,-0.1726,-0.1789,-0.1872,-0.1992,-0.2016,-0.2073,-0.2197,-0.227,-0.2372,-0.2411,-0.2462,-0.2473,-0.2498,-0.2473,-0.2454,-0.245,-0.2415,-0.2387,-0.2384,-0.2338,-0.229,-0.2137,-0.2177,-0.2163,-0.2299,-0.2299,-0.2299,0,-0.17,-0.1814,-0.1884,-0.1923,-0.2058,-0.2104,-0.2169,-0.2281,-0.2336,-0.2432,-0.2452,-0.2512,-0.249,-0.2492,-0.2439,-0.2436,-0.2399,-0.2391,-0.2349,-0.2344,-0.2241,-0.2226,-0.2251,-0.2404,-0.2405,-0.2405,-0.2405,0,-0.1712,-0.1768,-0.1872,-0.1916,-0.1997,-0.2085,-0.2165,-0.2247,-0.2333,-0.238,-0.2455,-0.2474,-0.249,-0.2475,-0.2449,-0.2391,-0.2408,-0.2363,-0.234,-0.2267,-0.2257,-0.2214,-0.2225,-0.2402,-0.2402,-0.2403,-0.2403,0,-0.1666,-0.1743,-0.1818,-0.1945,-0.198,-0.2022,-0.2123,-0.218,-0.2265,-0.2314,-0.2331,-0.2408,-0.2395,-0.241,-0.2387,-0.237,-0.2308,-0.2329,-0.2219,-0.2188,-0.2148,-0.2166,-0.2137,-0.208,-0.2262,-0.2261,-0.2261,0,-0.1651,-0.1684,-0.1795,-0.1825,-0.1871,-0.1946,-0.1997,-0.212,-0.2166,-0.2265,-0.2269,-0.2299,-0.2324,-0.2294,-0.2288,-0.2263,-0.2258,-0.2167,-0.2183,-0.2149,-0.2151,-0.215,-0.2104,-0.2053,-0.2051,-0.2049,-0.2048,0,-0.1602,-0.1624,-0.1679,-0.1737,-0.1785,-0.1852,-0.1922,-0.1955,-0.2085,-0.2129,-0.2181,-0.2213,-0.2224,-0.2195,-0.2186,-0.2152,-0.2121,-0.2131,-0.213,-0.2034,-0.1997,-0.1927,-0.2071,-0.2032,-0.2034,-0.2035,-0.2036,-0.2036,-0.1523,-0.1531,-0.1582,-0.1628,-0.1683,-0.1727,-0.1738,-0.1826,-0.1882,-0.1931,-0.2035,-0.2058,-0.2099,-0.2091,-0.2075,-0.2,-0.202,-0.1937,-0.1965,-0.197,-0.1925,-0.2028,-0.1959,-0.196,-0.1961,-0.1962,-0.1963,0,-0.1422,-0.1441,-0.1473,-0.1518,-0.1523,-0.1598,-0.1665,-0.1659,-0.1678,-0.1775,-0.1821,-0.1903,-0.1894,-0.1937,-0.1919,-0.1859,-0.1801,-0.1799,-0.1769,-0.1732,-0.1836,-0.184,-0.1701,-0.1701,-0.1701,-0.1701,-0.1701,-0.1701,-0.1368,-0.1353,-0.1374,-0.134,-0.1367,-0.1339,-0.135,-0.1369,-0.142,-0.1471,-0.1551,-0.1665,-0.1738,-0.1924,-0.1873,-0.1786,-0.1734,-0.1672,-0.1693,-0.1771,-0.1785,-0.1799,-0.1806,-0.1663,-0.1663,-0.151,-0.1509,-0.1508]},{"header":{"parameterUnit":"m.s-1","parameterCategory":2,"la1":30.2991,"la2":30.254,"lo1":-89.0895,"lo2":-89.0444,"dy":0.0017,"dx":0.0017,"nx":28,"ny":28,"refTime":"2024-03-12T21:00:00:Z","depth":"0","parameterNumber":3,"parameterNumberName":"V-component_of_CURRENTS"},"data":[0,0,0,0,0,0,0,0,0,0,0,0,0,0,0,0,0,0,0,0,0,0,0,0,0,0,0,0,0,0,0,0,0,0,0,0,0,0,0,0,0,0,0,0,0,0,0,0,0,0,0,0,0,0,0,0,0,0,0.0094,0.0095,0,0.0196,0.0198,0.0199,0.0241,0.0241,0.0241,0.024,0.033,0.0333,0.0335,0,0,0,0,0,0,0,0,0,0,0,0,0,0.0004,0.0005,0.0094,0.0095,0.0096,0.0196,0.0198,0.0199,0.0241,0.0241,0.024,0.024,0.0329,0.0332,0.0336,0,0,0,0,0,0,0,0,0,0,0,0,0,0.007,0.0006,0.0093,0.0128,0.0132,0.0196,0.0198,0.02,0.0241,0.0241,0.024,0.024,0.0328,0.0332,0.0336,0.0373,0,0,0.0349,0.0351,0,0,0,0,0,0,0,0,0.0066,0.0074,0.0121,0.0125,0.013,0.0204,0.0199,0.0257,0.0242,0.0202,0.024,0.0239,0.0286,0.0293,0.0317,0.0378,0.0381,0.0349,0.0352,0.0353,0.0355,0,0,0,0,0,0,0,0.0062,0.007,0.0136,0.0123,0.0128,0.0162,0.017,0.0211,0.0247,0.0205,0.0208,0.0217,0.0288,0.0313,0.0319,0.0383,0.0349,0.0353,0.0355,0.0357,0.0495,0.0496,0,0,0,0,0,0,0.0043,0.0065,0.0133,0.0139,0.0094,0.0163,0.0173,0.0182,0.0247,0.0256,0.0217,0.0218,0.0306,0.0314,0.0322,0.0352,0.0353,0.0357,0.036,0.0494,0.0495,0.0497,0,0,0,0,0,0,0.004,0.0048,0.0129,0.0103,0.0115,0.0165,0.0176,0.0184,0.0203,0.0256,0.0265,0.0225,0.0306,0.0317,0.0357,0.0357,0.0359,0.0363,0.0493,0.0494,0.0496,0.0424,0,0,0,0,0,0,0.0037,0.0046,0.0046,0.0102,0.0116,0.0151,0.0176,0.0187,0.0208,0.0211,0.0266,0.0274,0.0306,0.0351,0.0361,0.0362,0.0366,0.0491,0.0493,0.0495,0.0424,0.0423,0.0421,0,0,0,0,0,0.0034,0.003,0.0045,0.0053,0.0114,0.015,0.0161,0.0196,0.0209,0.0212,0.0256,0.0272,0.0373,0.0355,0.0367,0.0369,0.049,0.0493,0.0495,0.0425,0.0423,0.0421,0,0,0,0,0,0,-0.0012,0.0035,0.0053,0.0063,0.0097,0.0156,0.0163,0.0191,0.0231,0.0232,0.0283,0.0295,0.0335,0.0369,0.0348,0.0421,0.0436,0.0441,0.0379,0.0377,0.0375,0.0349,0.037,0,0,0,0,0,-0.0021,-0.0011,0.0038,0.0045,0.0059,0.0112,0.0131,0.0155,0.0198,0.0215,0.0257,0.0309,0.0359,0.0378,0.0427,0.046,0.0479,0.0474,0.0473,0.0471,0.0461,0.0498,0.0497,0.0506,0.0505,0.0505,0,0,-0.0037,-0.001,-0.0004,0.0036,0.0067,0.0082,0.0122,0.0143,0.0159,0.0219,0.0251,0.0304,0.037,0.041,0.0431,0.0432,0.0478,0.0474,0.0471,0.0463,0.05,0.0499,0.0498,0.0507,0.0507,0.0507,0,0,-0.0069,-0.004,-0.0045,-0.002,0.0017,0.0054,0.0055,0.011,0.0136,0.0178,0.023,0.0279,0.0352,0.0397,0.043,0.0452,0.0472,0.0473,0.0433,0.0469,0.0467,0.0466,0.0473,0.0474,0.0465,0.0465,0.0465,0,-0.0091,-0.0088,-0.0042,-0.0041,-0.0028,0.0035,0.003,0.0073,0.0135,0.0156,0.0175,0.0296,0.0346,0.0401,0.041,0.0444,0.0458,0.0427,0.0462,0.0462,0.0462,0.047,0.0471,0.0462,0.0463,0.0463,0.0463,0,-0.0126,-0.0123,-0.0125,-0.0101,-0.0079,-0.0073,-0.0015,0.0014,0.0056,0.0102,0.0166,0.0245,0.031,0.0342,0.0381,0.0416,0.0422,0.0455,0.0454,0.0456,0.0465,0.0467,0.0458,0.0459,0.046,0.046,0,0,-0.0177,-0.0156,-0.0157,-0.0163,-0.0114,-0.0103,-0.0071,-0.0027,-0.001,0.0064,0.0091,0.0192,0.0235,0.0277,0.0339,0.0372,0.0385,0.0404,0.0407,0.0385,0.0438,0.0489,0.0496,0.0418,0.0418,0.0419,0.0436,0,-0.0221,-0.0248,-0.0213,-0.0231,-0.024,-0.0176,-0.0153,-0.0102,-0.0044,0.0001,0.0093,0.0147,0.0212,0.0239,0.0285,0.0368,0.0391,0.0375,0.0461,0.0463,0.0488,0.0501,0.0533,0.0556,0.0439,0.0439,0.044,0,-0.0268,-0.028,-0.0312,-0.0305,-0.0301,-0.0293,-0.0252,-0.0224,-0.0137,-0.0092,-0.002,0.0057,0.0132,0.0184,0.03,0.0285,0.0348,0.0408,0.0411,0.0484,0.052,0.0543,0.0566,0.0706,0.0443,0.0443,0.0443,0,-0.0341,-0.0349,-0.0382,-0.0379,-0.0353,-0.0349,-0.0329,-0.0257,-0.0236,-0.0154,-0.0129,-0.0021,0.0031,0.0131,0.0273,0.0277,0.0394,0.0417,0.0517,0.052,0.0579,0.0587,0.0729,0.0484,0.0484,0.0484,0.0484,0,-0.0407,-0.0431,-0.0421,-0.0439,-0.047,-0.0425,-0.0431,-0.0388,-0.0329,-0.0307,-0.0189,-0.0142,0.0021,0.0123,0.0239,0.0391,0.0369,0.0507,0.0536,0.0556,0.0561,0.0713,0.0766,0.0485,0.0484,0.0484,0.0484,0,-0.0481,-0.0475,-0.0511,-0.0505,-0.0507,-0.0529,-0.0509,-0.0505,-0.0441,-0.041,-0.0389,-0.0245,-0.0099,0.0067,0.0235,0.0347,0.0568,0.0541,0.0543,0.0573,0.0798,0.0844,0.0994,0.1041,0.0639,0.064,0.0642,0,-0.0523,-0.055,-0.057,-0.0595,-0.0595,-0.0614,-0.062,-0.0569,-0.0554,-0.0461,-0.0447,-0.0305,-0.0174,0.0095,0.0325,0.0531,0.063,0.0664,0.0693,0.0819,0.0891,0.0923,0.0952,0.0728,0.073,0.0731,0.0733,0,-0.0595,-0.0596,-0.0624,-0.0679,-0.0701,-0.0723,-0.0723,-0.0729,-0.0657,-0.0607,-0.0508,-0.0402,-0.0115,0.0172,0.0453,0.0574,0.0765,0.0701,0.0842,0.0983,0.1017,0.1073,0.0685,0.0746,0.0745,0.0744,0.0743,0.0743,-0.0638,-0.0676,-0.0708,-0.0757,-0.0788,-0.0811,-0.082,-0.0794,-0.0763,-0.0663,-0.0557,-0.0362,0.0054,0.0479,0.0632,0.0957,0.09,0.1039,0.1082,0.11,0.117,0.0803,0.0899,0.0899,0.0898,0.0898,0.0898,0,-0.0688,-0.0725,-0.0781,-0.083,-0.087,-0.0865,-0.0868,-0.0845,-0.0794,-0.0669,-0.0537,-0.0085,0.0331,0.0704,0.1183,0.1345,0.1356,0.1399,0.1456,0.1464,0.1157,0.1188,0.134,0.134,0.134,0.134,0.134,0.1339,-0.0715,-0.0782,-0.0809,-0.0883,-0.0912,-0.0934,-0.0928,-0.0869,-0.0769,-0.0528,-0.0281,-0.0077,0.0461,0.127,0.1704,0.1716,0.1835,0.1809,0.1859,0.1667,0.1637,0.1608,0.1653,0.1901,0.1901,0.2149,0.2152,0.2154]}],[{"header":{"parameterUnit":"m.s-1","parameterCategory":2,"la1":30.2991,"la2":30.254,"lo1":-89.0895,"lo2":-89.0444,"dy":0.0017,"dx":0.0017,"nx":28,"ny":28,"refTime":"2024-03-12T21:00:00:Z","depth":"2","parameterNumber":2,"parameterNumberName":"U-component_of_CURRENTS"},"data":[0,0,0,0,0,0,0,0,0,0,0,0,0,0,0,0,0,0,0,0,0,0,0,0,0,0,0,0,0,0,0,0,0,0,0,0,0,0,0,0,0,0,0,0,0,0,0,0,0,0,0,0,0,0,0,0,0,0,-0.1527,-0.1527,0,-0.1562,-0.1563,-0.1563,-0.1578,-0.1578,-0.1577,-0.1577,-0.158,-0.158,-0.1581,0,0,0,0,0,0,0,0,0,0,0,0,0,-0.1473,-0.1474,-0.1527,-0.1527,-0.1527,-0.1562,-0.1563,-0.1564,-0.1578,-0.1578,-0.1577,-0.1577,-0.158,-0.158,-0.1581,0,0,0,0,0,0,0,0,0,0,0,0,0,-0.1503,-0.1474,-0.1527,-0.1537,-0.1538,-0.1562,-0.1563,-0.1564,-0.1578,-0.1578,-0.1577,-0.1577,-0.158,-0.158,-0.1581,-0.1593,0,0,-0.1582,-0.1583,0,0,0,0,0,0,0,0,-0.1502,-0.1506,-0.1535,-0.1536,-0.1537,-0.1563,-0.1545,-0.1571,-0.1578,-0.1565,-0.1577,-0.1577,-0.157,-0.1572,-0.1583,-0.1593,-0.1593,-0.1582,-0.1583,-0.1583,-0.1583,0,0,0,0,0,0,0,-0.1499,-0.1504,-0.1543,-0.1535,-0.1537,-0.154,-0.1544,-0.155,-0.1571,-0.1566,-0.1567,-0.1567,-0.1571,-0.1582,-0.1583,-0.1593,-0.1582,-0.1583,-0.1583,-0.1583,-0.1671,-0.1673,0,0,0,0,0,0,-0.1491,-0.1502,-0.1542,-0.1544,-0.1515,-0.1541,-0.1546,-0.1557,-0.1572,-0.1573,-0.1568,-0.1568,-0.1582,-0.1582,-0.1583,-0.164,-0.1583,-0.1583,-0.1584,-0.1669,-0.1672,-0.1674,0,0,0,0,0,0,-0.149,-0.1495,-0.154,-0.1521,-0.1527,-0.1542,-0.1555,-0.1558,-0.1572,-0.1573,-0.1574,-0.1578,-0.1581,-0.1582,-0.1605,-0.1638,-0.1584,-0.1584,-0.1667,-0.167,-0.1673,-0.1725,0,0,0,0,0,0,-0.1489,-0.1495,-0.1504,-0.1521,-0.1528,-0.1562,-0.1555,-0.1559,-0.1572,-0.1573,-0.1582,-0.1582,-0.1581,-0.1605,-0.1606,-0.1638,-0.1585,-0.1664,-0.1668,-0.1672,-0.1721,-0.173,-0.1737,0,0,0,0,0,-0.1487,-0.1499,-0.1504,-0.1509,-0.1539,-0.1562,-0.1567,-0.1577,-0.1573,-0.1587,-0.1598,-0.1582,-0.163,-0.1607,-0.1607,-0.164,-0.1662,-0.1667,-0.1672,-0.1717,-0.1728,-0.1737,0,0,0,0,0,0,-0.148,-0.1502,-0.1508,-0.1526,-0.1546,-0.1564,-0.1574,-0.158,-0.1601,-0.16,-0.16,-0.1602,-0.1642,-0.1633,-0.1607,-0.168,-0.1647,-0.1652,-0.1681,-0.1691,-0.1699,-0.1702,-0.1585,0,0,0,0,0,-0.1483,-0.1497,-0.1519,-0.1534,-0.1543,-0.156,-0.157,-0.1579,-0.1596,-0.1605,-0.1617,-0.1634,-0.1663,-0.1668,-0.1691,-0.1717,-0.17,-0.1743,-0.1751,-0.1758,-0.1764,-0.178,-0.1789,-0.1689,-0.1689,-0.1689,0,0,-0.1481,-0.1496,-0.1503,-0.1533,-0.1547,-0.158,-0.1566,-0.1585,-0.1624,-0.1601,-0.1655,-0.1663,-0.1679,-0.1723,-0.1739,-0.1716,-0.1775,-0.1764,-0.1769,-0.1771,-0.1785,-0.1795,-0.1803,-0.1692,-0.1691,-0.1691,0,0,-0.1491,-0.1503,-0.1522,-0.1545,-0.157,-0.1588,-0.1595,-0.1623,-0.1648,-0.1694,-0.1699,-0.1726,-0.176,-0.1784,-0.1799,-0.1863,-0.1824,-0.1869,-0.1902,-0.1918,-0.1926,-0.1932,-0.1904,-0.1908,-0.1864,-0.1865,-0.1865,0,-0.1488,-0.1523,-0.153,-0.1563,-0.1586,-0.1595,-0.1631,-0.1665,-0.1703,-0.1728,-0.172,-0.1794,-0.1798,-0.1859,-0.1882,-0.1882,-0.1863,-0.186,-0.1926,-0.1933,-0.1939,-0.1908,-0.1912,-0.1868,-0.1867,-0.1867,-0.1867,0,-0.1516,-0.1553,-0.1566,-0.1616,-0.1642,-0.1671,-0.1715,-0.1752,-0.1776,-0.1806,-0.1871,-0.1887,-0.1924,-0.1937,-0.1925,-0.1979,-0.1942,-0.1939,-0.1895,-0.1952,-0.1916,-0.1919,-0.1872,-0.1871,-0.187,-0.1869,0,0,-0.1493,-0.1571,-0.1579,-0.1618,-0.1674,-0.1699,-0.1768,-0.1831,-0.1872,-0.1919,-0.1972,-0.2029,-0.2021,-0.2037,-0.2032,-0.204,-0.2055,-0.2,-0.2,-0.196,-0.2052,-0.2032,-0.2032,-0.2056,-0.2058,-0.2059,-0.2001,0,-0.1517,-0.159,-0.1623,-0.1699,-0.1742,-0.1781,-0.1846,-0.1902,-0.1943,-0.1996,-0.203,-0.2075,-0.2066,-0.2071,-0.2088,-0.206,-0.2067,-0.2068,-0.2014,-0.2012,-0.1978,-0.2038,-0.1879,-0.1817,-0.2004,-0.2004,-0.2004,0,-0.1531,-0.1587,-0.1661,-0.1755,-0.1775,-0.1817,-0.1902,-0.1959,-0.2033,-0.2065,-0.2112,-0.2128,-0.2158,-0.2138,-0.2138,-0.2132,-0.2103,-0.208,-0.2077,-0.2044,-0.1999,-0.1797,-0.1814,-0.2008,-0.2008,-0.2007,-0.2007,0,-0.1512,-0.1611,-0.1673,-0.1705,-0.1809,-0.1846,-0.1893,-0.197,-0.2014,-0.2091,-0.2109,-0.2168,-0.2166,-0.2172,-0.2136,-0.2129,-0.2115,-0.21,-0.206,-0.2055,-0.1905,-0.1887,-0.2116,-0.2116,-0.2116,-0.2116,-0.2117,0,-0.1526,-0.1575,-0.1666,-0.1704,-0.1768,-0.1837,-0.1898,-0.1955,-0.2024,-0.2063,-0.2125,-0.2151,-0.2173,-0.217,-0.2148,-0.2109,-0.2129,-0.2077,-0.2056,-0.1918,-0.1903,-0.2061,-0.2055,-0.2114,-0.2115,-0.2115,-0.2116,0,-0.1492,-0.156,-0.1624,-0.1729,-0.1757,-0.1792,-0.1874,-0.1914,-0.1986,-0.203,-0.205,-0.2117,-0.2118,-0.2133,-0.2118,-0.2102,-0.2082,-0.2066,-0.1887,-0.1849,-0.1999,-0.1997,-0.2008,-0.2007,-0.2006,-0.2006,-0.2005,0,-0.1482,-0.1513,-0.1607,-0.1632,-0.1673,-0.1736,-0.1775,-0.1874,-0.1908,-0.2002,-0.2009,-0.2047,-0.2067,-0.205,-0.2035,-0.2009,-0.2052,-0.1844,-0.1833,-0.2017,-0.1996,-0.1995,-0.1994,-0.1627,-0.1624,-0.1621,-0.1619,0,-0.1441,-0.1462,-0.151,-0.1562,-0.1602,-0.1655,-0.1713,-0.1741,-0.1849,-0.189,-0.1939,-0.1967,-0.198,-0.1903,-0.189,-0.1849,-0.1843,-0.1787,-0.2022,-0.1705,-0.1662,-0.164,-0.1651,-0.1593,-0.1596,-0.1597,-0.1599,-0.16,-0.1374,-0.1382,-0.1428,-0.1468,-0.1514,-0.1546,-0.1548,-0.1622,-0.1664,-0.1699,-0.1802,-0.1786,-0.1805,-0.1716,-0.1664,-0.1612,-0.1729,-0.1634,-0.1641,-0.1652,-0.1644,-0.1606,-0.152,-0.1522,-0.1524,-0.1526,-0.1527,0,-0.1283,-0.1302,-0.1332,-0.1369,-0.1369,-0.1434,-0.1481,-0.1461,-0.1468,-0.1535,-0.1568,-0.1451,-0.1433,-0.1448,-0.1354,-0.1362,-0.1322,-0.1286,-0.1225,-0.1251,-0.1275,-0.1247,-0.1017,-0.1016,-0.1015,-0.1014,0,0,-0.1233,-0.122,-0.124,-0.1206,-0.123,-0.1191,-0.1191,-0.1186,-0.1204,-0.1179,-0.1178,-0.1319,-0.139,-0.1194,-0.1168,-0.1077,-0.1139,-0.1019,-0.1424,-0.1375,-0.1396,-0.1472,-0.1459,0,0,0,0,0]},{"header":{"parameterUnit":"m.s-1","parameterCategory":2,"la1":30.2991,"la2":30.254,"lo1":-89.0895,"lo2":-89.0444,"dy":0.0017,"dx":0.0017,"nx":28,"ny":28,"refTime":"2024-03-12T21:00:00:Z","depth":"2","parameterNumber":3,"parameterNumberName":"V-component_of_CURRENTS"},"data":[0,0,0,0,0,0,0,0,0,0,0,0,0,0,0,0,0,0,0,0,0,0,0,0,0,0,0,0,0,0,0,0,0,0,0,0,0,0,0,0,0,0,0,0,0,0,0,0,0,0,0,0,0,0,0,0,0,0,0.0004,0.0005,0,0.0079,0.008,0.0081,0.0111,0.0111,0.0111,0.011,0.0184,0.0186,0.0188,0,0,0,0,0,0,0,0,0,0,0,0,0,-0.0063,-0.0062,0.0004,0.0005,0.0006,0.0079,0.008,0.0081,0.0111,0.0111,0.011,0.011,0.0183,0.0186,0.0189,0,0,0,0,0,0,0,0,0,0,0,0,0,-0.0015,-0.0062,0.0004,0.0029,0.0032,0.0079,0.008,0.0082,0.0111,0.0111,0.011,0.011,0.0182,0.0186,0.0189,0.0216,0,0,0.0199,0.02,0,0,0,0,0,0,0,0,-0.0018,-0.0013,0.0024,0.0027,0.0031,0.0085,0.0084,0.0126,0.0111,0.0082,0.011,0.011,0.0151,0.0157,0.0172,0.022,0.0223,0.0199,0.0201,0.0203,0.0204,0,0,0,0,0,0,0,-0.0021,-0.0015,0.0034,0.0025,0.0029,0.0054,0.006,0.0092,0.0118,0.0084,0.0086,0.0094,0.0152,0.0169,0.0174,0.0224,0.0199,0.0202,0.0204,0.0205,0.0334,0.0336,0,0,0,0,0,0,-0.0034,-0.0019,0.0032,0.0036,0.0004,0.0055,0.0062,0.0068,0.0117,0.0124,0.0094,0.0095,0.0164,0.017,0.0177,0.0203,0.0203,0.0206,0.0208,0.0333,0.0335,0.0336,0,0,0,0,0,0,-0.0036,-0.003,0.0029,0.001,0.0019,0.0057,0.0064,0.007,0.0084,0.0125,0.0132,0.0101,0.0164,0.0172,0.02,0.0207,0.0207,0.021,0.0331,0.0333,0.0335,0.0262,0,0,0,0,0,0,-0.0038,-0.0031,-0.0033,0.0009,0.002,0.0046,0.0064,0.0072,0.0089,0.0091,0.0133,0.014,0.0164,0.0195,0.0204,0.0211,0.0213,0.0329,0.0332,0.0335,0.0263,0.0261,0.026,0,0,0,0,0,-0.004,-0.0044,-0.0034,-0.0027,0.0017,0.0046,0.0053,0.0079,0.009,0.0091,0.0122,0.0138,0.022,0.0198,0.0208,0.0217,0.0328,0.0331,0.0334,0.0263,0.0262,0.026,0,0,0,0,0,0,-0.0079,-0.004,-0.0028,-0.0021,0.0006,0.005,0.0057,0.0077,0.0105,0.0106,0.0144,0.0153,0.0189,0.0219,0.0194,0.0269,0.0283,0.0288,0.0225,0.0224,0.0223,0.0201,0.0215,0,0,0,0,0,-0.0087,-0.0078,-0.0039,-0.0036,-0.0022,0.0018,0.0033,0.0051,0.0083,0.0094,0.0125,0.0169,0.0213,0.0227,0.0272,0.0297,0.0321,0.0318,0.0317,0.0315,0.0309,0.035,0.0351,0.0347,0.0347,0.0347,0,0,-0.0102,-0.0079,-0.0075,-0.0043,-0.0018,-0.0006,0.0026,0.0045,0.0055,0.0099,0.0119,0.0165,0.0224,0.0257,0.0277,0.0276,0.033,0.0319,0.0317,0.0312,0.0353,0.0353,0.0353,0.0349,0.0349,0.0348,0,0,-0.0128,-0.0106,-0.0107,-0.0086,-0.0053,-0.0026,-0.0023,0.002,0.0039,0.0067,0.011,0.0151,0.0211,0.0249,0.0279,0.0302,0.0329,0.0329,0.0291,0.0331,0.033,0.033,0.0349,0.0351,0.0319,0.0319,0.0319,0,-0.015,-0.0146,-0.0105,-0.01,-0.009,-0.0039,-0.0042,-0.001,0.0035,0.0049,0.0064,0.0167,0.0208,0.0256,0.0265,0.0295,0.0316,0.028,0.0324,0.0325,0.0326,0.0346,0.0349,0.0316,0.0316,0.0316,0.0317,0,-0.0174,-0.0172,-0.0171,-0.0149,-0.0131,-0.0125,-0.0078,-0.0057,-0.0025,0.0008,0.0063,0.0126,0.0182,0.0213,0.0241,0.028,0.0292,0.0319,0.0313,0.0321,0.0343,0.0347,0.0311,0.0312,0.0313,0.0314,0,0,-0.0222,-0.0196,-0.0197,-0.0202,-0.0159,-0.0151,-0.0126,-0.0093,-0.008,-0.0023,-0.0002,0.0083,0.012,0.0158,0.021,0.0242,0.0264,0.0273,0.0277,0.0265,0.0335,0.0373,0.0382,0.0293,0.0294,0.0295,0.0341,0,-0.0257,-0.0275,-0.0243,-0.0259,-0.0266,-0.0212,-0.0196,-0.0157,-0.0111,-0.0076,0.0003,0.0049,0.0101,0.0126,0.0168,0.0251,0.0275,0.0248,0.0354,0.0356,0.0367,0.0389,0.0352,0.0394,0.0346,0.0347,0.0348,0,-0.0296,-0.0303,-0.0329,-0.0323,-0.0319,-0.0314,-0.0283,-0.0262,-0.019,-0.0152,-0.009,-0.0022,0.0047,0.0088,0.0209,0.0188,0.025,0.0308,0.0311,0.0374,0.0403,0.0385,0.0404,0.0356,0.0355,0.0354,0.0354,0,-0.0363,-0.0366,-0.0394,-0.0391,-0.0367,-0.0365,-0.0349,-0.029,-0.0274,-0.0202,-0.0177,-0.0078,-0.0026,0.0071,0.0202,0.0201,0.033,0.0346,0.0434,0.0437,0.0442,0.0444,0.0417,0.0417,0.0417,0.0417,0.0417,0,-0.0422,-0.0443,-0.0429,-0.0445,-0.0473,-0.0432,-0.0439,-0.0403,-0.0349,-0.0328,-0.0225,-0.0178,-0.0027,0.0075,0.0182,0.0329,0.0318,0.043,0.0458,0.0417,0.0417,0.0418,0.0417,0.0419,0.0418,0.0418,0.0418,0,-0.0492,-0.0482,-0.0514,-0.0506,-0.0507,-0.0528,-0.0507,-0.0504,-0.0443,-0.0411,-0.0391,-0.0256,-0.0114,0.004,0.0206,0.0305,0.0438,0.0487,0.0423,0.0443,0.0514,0.051,0.0581,0.0583,0.0584,0.0586,0.0587,0,-0.0531,-0.0554,-0.0569,-0.0592,-0.059,-0.0607,-0.0612,-0.0562,-0.0546,-0.045,-0.0434,-0.0294,-0.0177,0.0084,0.0284,0.0477,0.0476,0.0543,0.0545,0.0515,0.0534,0.0527,0.0521,0.0513,0.0513,0.0514,0.0514,0,-0.06,-0.06,-0.0624,-0.0673,-0.0692,-0.0708,-0.0705,-0.0706,-0.0634,-0.0585,-0.0487,-0.039,-0.0123,0.0104,0.0362,0.0465,0.0514,0.0557,0.055,0.0486,0.0457,0.0474,0.0469,0.0517,0.0517,0.0517,0.0516,0.0516,-0.0644,-0.0679,-0.0708,-0.0752,-0.0777,-0.0792,-0.0801,-0.0772,-0.0741,-0.0645,-0.0541,-0.0374,-0.0141,0.0231,0.0418,0.0582,0.0581,0.0607,0.0603,0.0599,0.0591,0.0569,0.0646,0.0646,0.0647,0.0647,0.0647,0,-0.0697,-0.073,-0.0782,-0.0825,-0.0861,-0.0852,-0.0846,-0.0826,-0.0782,-0.0667,-0.0549,-0.0305,-0.0035,0.0199,0.0478,0.0648,0.0621,0.0651,0.0585,0.0581,0.0578,0.0567,0.0616,0.0617,0.0617,0.0618,0,0,-0.0725,-0.0789,-0.0814,-0.0883,-0.0909,-0.0931,-0.0923,-0.087,-0.078,-0.0669,-0.0538,-0.0333,-0.0036,0.0156,0.0367,0.0505,0.0492,0.0502,0.0507,0.04,0.0395,0.0531,0.0508,0,0,0,0,0]}],[{"header":{"parameterUnit":"m.s-1","parameterCategory":2,"la1":30.2991,"la2":30.254,"lo1":-89.0895,"lo2":-89.0444,"dy":0.0017,"dx":0.0017,"nx":28,"ny":28,"refTime":"2024-03-12T21:00:00:Z","depth":"4","parameterNumber":2,"parameterNumberName":"U-component_of_CURRENTS"},"data":[0,0,0,0,0,0,0,0,0,0,0,0,0,0,0,0,0,0,0,0,0,0,0,0,0,0,0,0,0,0,0,0,0,0,0,0,0,0,0,0,0,0,0,0,0,0,0,0,0,0,0,0,0,0,0,0,0,0,-0.1041,-0.1041,0,-0.1002,-0.1001,-0.1,-0.1007,-0.1008,-0.101,-0.1011,-0.1013,-0.1012,-0.1011,0,0,0,0,0,0,0,0,0,0,0,0,0,-0.0999,-0.0999,-0.1041,-0.1041,-0.1041,-0.1002,-0.1001,-0.1,-0.1007,-0.1008,-0.101,-0.1012,-0.1013,-0.1012,-0.1011,0,0,0,0,0,0,0,0,0,0,0,0,0,-0.0987,-0.1,-0.1041,-0.1045,-0.1046,-0.1002,-0.1001,-0.0999,-0.1006,-0.1008,-0.101,-0.1012,-0.1014,-0.1012,-0.101,-0.0958,0,0,-0.1005,-0.1004,0,0,0,0,0,0,0,0,-0.0988,-0.0988,-0.1045,-0.1045,-0.1046,-0.1018,-0.0987,-0.099,-0.1006,-0.1014,-0.1011,-0.1013,-0.1022,-0.1019,-0.0996,-0.0958,-0.0958,-0.1005,-0.1004,-0.1003,-0.1002,0,0,0,0,0,0,0,-0.0989,-0.0989,-0.1018,-0.1045,-0.1046,-0.1008,-0.1009,-0.0986,-0.1002,-0.1013,-0.1015,-0.1022,-0.1022,-0.0998,-0.0997,-0.0958,-0.1005,-0.1003,-0.1002,-0.1001,-0.093,-0.0929,0,0,0,0,0,0,-0.1013,-0.099,-0.1019,-0.1017,-0.103,-0.1008,-0.1009,-0.1019,-0.1001,-0.1002,-0.102,-0.1023,-0.1,-0.0999,-0.0997,-0.1025,-0.1003,-0.1001,-0.1,-0.0931,-0.093,-0.0929,0,0,0,0,0,0,-0.1012,-0.1016,-0.1021,-0.1008,-0.1008,-0.1009,-0.1018,-0.1017,-0.1025,-0.1008,-0.1008,-0.1035,-0.1002,-0.1,-0.0992,-0.1022,-0.1,-0.0999,-0.0932,-0.0931,-0.0929,-0.1023,0,0,0,0,0,0,-0.1011,-0.1016,-0.1031,-0.1011,-0.101,-0.1024,-0.1017,-0.1015,-0.1028,-0.1031,-0.102,-0.102,-0.1003,-0.0995,-0.0991,-0.1019,-0.0997,-0.0933,-0.0931,-0.093,-0.1021,-0.1025,-0.1029,0,0,0,0,0,-0.101,-0.1027,-0.1032,-0.1036,-0.1031,-0.1026,-0.1021,-0.1022,-0.1028,-0.1035,-0.1018,-0.1022,-0.0983,-0.0993,-0.0988,-0.1017,-0.0933,-0.0932,-0.093,-0.1019,-0.1025,-0.1029,0,0,0,0,0,0,-0.1012,-0.1029,-0.1035,-0.1056,-0.1056,-0.1031,-0.1043,-0.1035,-0.1023,-0.1038,-0.1011,-0.1009,-0.1014,-0.0986,-0.0998,-0.0985,-0.0959,-0.0956,-0.1028,-0.1033,-0.1037,-0.1079,-0.0996,0,0,0,0,0,-0.1021,-0.1044,-0.1046,-0.1064,-0.1073,-0.1059,-0.1059,-0.1063,-0.105,-0.1048,-0.1029,-0.1008,-0.0991,-0.0994,-0.0968,-0.0961,-0.0968,-0.0972,-0.0976,-0.098,-0.1005,-0.1018,-0.1027,-0.0923,-0.0923,-0.0923,0,0,-0.1025,-0.104,-0.1052,-0.1067,-0.1069,-0.1084,-0.1064,-0.1084,-0.1092,-0.105,-0.105,-0.1024,-0.0989,-0.0984,-0.0984,-0.0976,-0.1013,-0.0978,-0.0982,-0.1006,-0.1017,-0.1028,-0.1038,-0.0922,-0.0922,-0.0922,0,0,-0.1047,-0.1065,-0.1093,-0.1105,-0.1129,-0.1118,-0.1134,-0.1122,-0.1121,-0.1108,-0.1084,-0.1078,-0.1034,-0.1026,-0.1014,-0.102,-0.1031,-0.1006,-0.1073,-0.1084,-0.1095,-0.1104,-0.1144,-0.1156,-0.1013,-0.1014,-0.1014,0,-0.1053,-0.109,-0.1097,-0.113,-0.1148,-0.1142,-0.1172,-0.1161,-0.1142,-0.1143,-0.1127,-0.1081,-0.1058,-0.1068,-0.1073,-0.1038,-0.1052,-0.1067,-0.1096,-0.1105,-0.1112,-0.1151,-0.1163,-0.1018,-0.1017,-0.1017,-0.1016,0,-0.1091,-0.1129,-0.115,-0.1191,-0.1206,-0.1233,-0.1234,-0.1238,-0.1228,-0.1211,-0.1213,-0.117,-0.1151,-0.1137,-0.1112,-0.1152,-0.1149,-0.1102,-0.11,-0.113,-0.1167,-0.1178,-0.1024,-0.1022,-0.1021,-0.102,0,0,-0.1082,-0.1161,-0.1173,-0.1205,-0.1247,-0.1257,-0.1287,-0.1299,-0.1317,-0.1294,-0.1313,-0.1282,-0.1268,-0.1253,-0.1222,-0.1237,-0.1307,-0.1207,-0.1205,-0.1278,-0.1366,-0.1262,-0.1264,-0.1271,-0.1273,-0.1274,-0.1378,0,-0.1111,-0.1183,-0.1215,-0.1275,-0.1309,-0.133,-0.135,-0.1365,-0.1359,-0.1368,-0.1353,-0.1347,-0.1308,-0.1308,-0.1323,-0.1304,-0.1337,-0.1285,-0.1299,-0.1301,-0.1229,-0.1272,-0.128,-0.1386,-0.1389,-0.1391,-0.1392,0,-0.1133,-0.1182,-0.1254,-0.1323,-0.1341,-0.1372,-0.1416,-0.1432,-0.1454,-0.1453,-0.1467,-0.1444,-0.1476,-0.1421,-0.1455,-0.1427,-0.1419,-0.1404,-0.1406,-0.1287,-0.1216,-0.134,-0.1412,-0.141,-0.1409,-0.1407,-0.1406,0,-0.1112,-0.1203,-0.1261,-0.1288,-0.1363,-0.1398,-0.1428,-0.1459,-0.1471,-0.1513,-0.1528,-0.1552,-0.1562,-0.1564,-0.1534,-0.1507,-0.1567,-0.1513,-0.1423,-0.1417,-0.1442,-0.1431,-0.155,-0.155,-0.1549,-0.1549,-0.1549,0,-0.1117,-0.1165,-0.126,-0.1293,-0.1347,-0.1405,-0.1452,-0.1481,-0.1527,-0.1544,-0.1572,-0.1584,-0.1596,-0.1612,-0.1589,-0.1548,-0.1612,-0.1461,-0.1436,-0.1477,-0.1469,-0.1452,-0.1439,-0.1553,-0.1552,-0.1551,-0.1551,0,-0.1081,-0.115,-0.1214,-0.1311,-0.134,-0.1376,-0.1453,-0.1473,-0.1536,-0.1567,-0.1585,-0.1631,-0.1649,-0.1655,-0.1663,-0.1599,-0.1575,-0.1541,-0.163,-0.1603,-0.1416,-0.1407,-0.1471,-0.1468,-0.1466,-0.1464,-0.1462,0,-0.1067,-0.1101,-0.1208,-0.1238,-0.1287,-0.135,-0.1381,-0.1457,-0.1474,-0.1569,-0.1571,-0.1628,-0.164,-0.1597,-0.1606,-0.1588,-0.1542,-0.1546,-0.145,-0.1439,-0.1409,-0.1403,-0.1397,-0.1459,-0.1458,-0.1457,-0.1457,0,-0.1025,-0.1071,-0.1121,-0.1185,-0.1234,-0.1276,-0.1331,-0.134,-0.1423,-0.1503,-0.1513,-0.1515,-0.154,-0.1532,-0.1528,-0.1499,-0.1553,-0.1521,-0.1524,-0.1433,-0.1425,-0.1395,-0.1392,-0.1448,-0.145,-0.145,-0.1451,0,-0.0978,-0.0997,-0.1061,-0.1105,-0.1164,-0.1177,-0.1223,-0.1252,-0.1286,-0.1394,-0.1399,-0.1461,-0.153,-0.1487,-0.1481,-0.1452,-0.1411,-0.1354,-0.1365,-0.1375,-0.1285,-0.1256,-0.1229,0,0,0,0,0,-0.0919,-0.0929,-0.0969,-0.1012,-0.1068,-0.1094,-0.1172,-0.1219,-0.1313,-0.1285,-0.1336,-0.1348,-0.1343,-0.1376,-0.1318,-0.1421,-0.1411,-0.1348,-0.135,-0.1402,-0.1412,-0.1308,0,0,0,0,0,0,-0.0878,-0.0913,-0.0934,-0.0919,-0.0926,-0.0968,-0.1012,-0.1081,-0.1071,-0.1177,-0.1178,-0.1261,-0.127,-0.1348,-0.1287,-0.1295,-0.1269,-0.1391,-0.1387,-0.1397,-0.1406,-0.1413,-0.131,0,0,0,0,0]},{"header":{"parameterUnit":"m.s-1","parameterCategory":2,"la1":30.2991,"la2":30.254,"lo1":-89.0895,"lo2":-89.0444,"dy":0.0017,"dx":0.0017,"nx":28,"ny":28,"refTime":"2024-03-12T21:00:00:Z","depth":"4","parameterNumber":3,"parameterNumberName":"V-component_of_CURRENTS"},"data":[0,0,0,0,0,0,0,0,0,0,0,0,0,0,0,0,0,0,0,0,0,0,0,0,0,0,0,0,0,0,0,0,0,0,0,0,0,0,0,0,0,0,0,0,0,0,0,0,0,0,0,0,0,0,0,0,0,0,-0.0069,-0.0068,0,-0.0063,-0.0063,-0.0063,-0.0063,-0.0063,-0.0062,-0.0062,-0.0079,-0.008,-0.0081,0,0,0,0,0,0,0,0,0,0,0,0,0,-0.0093,-0.0093,-0.0069,-0.0068,-0.0068,-0.0062,-0.0063,-0.0063,-0.0063,-0.0063,-0.0062,-0.0062,-0.0079,-0.008,-0.0081,0,0,0,0,0,0,0,0,0,0,0,0,0,-0.0089,-0.0093,-0.0069,-0.0064,-0.0063,-0.0062,-0.0063,-0.0063,-0.0063,-0.0063,-0.0062,-0.0062,-0.0079,-0.008,-0.0081,-0.0097,0,0,-0.0085,-0.0085,0,0,0,0,0,0,0,0,-0.0089,-0.0088,-0.0065,-0.0064,-0.0063,-0.0059,-0.0078,-0.0074,-0.0063,-0.0068,-0.0062,-0.0062,-0.0072,-0.0074,-0.008,-0.0098,-0.0099,-0.0085,-0.0085,-0.0086,-0.0086,0,0,0,0,0,0,0,-0.0089,-0.0088,-0.007,-0.0064,-0.0063,-0.0066,-0.0065,-0.0077,-0.0076,-0.0067,-0.0066,-0.0059,-0.0073,-0.0079,-0.008,-0.0099,-0.0085,-0.0086,-0.0086,-0.0087,-0.0154,-0.0155,0,0,0,0,0,0,-0.0081,-0.0089,-0.0071,-0.007,-0.007,-0.0066,-0.0065,-0.0065,-0.0076,-0.0076,-0.0059,-0.0059,-0.0077,-0.0079,-0.0081,-0.009,-0.0086,-0.0087,-0.0087,-0.0153,-0.0154,-0.0155,0,0,0,0,0,0,-0.0082,-0.008,-0.0071,-0.0075,-0.0074,-0.0065,-0.0065,-0.0065,-0.0065,-0.0069,-0.007,-0.0059,-0.0077,-0.0079,-0.0094,-0.0091,-0.0087,-0.0088,-0.0151,-0.0153,-0.0155,-0.0115,0,0,0,0,0,0,-0.0083,-0.0081,-0.0085,-0.0075,-0.0073,-0.0065,-0.0065,-0.0065,-0.006,-0.0059,-0.0069,-0.0071,-0.0076,-0.0092,-0.0095,-0.0092,-0.0089,-0.015,-0.0152,-0.0154,-0.0115,-0.0115,-0.0115,0,0,0,0,0,-0.0084,-0.0088,-0.0086,-0.0083,-0.0077,-0.0064,-0.0064,-0.006,-0.006,-0.006,-0.0072,-0.007,-0.0108,-0.0094,-0.0097,-0.0094,-0.0149,-0.0152,-0.0154,-0.0115,-0.0115,-0.0115,0,0,0,0,0,0,-0.0109,-0.0088,-0.0085,-0.0085,-0.0072,-0.0063,-0.0062,-0.0059,-0.0069,-0.007,-0.0079,-0.0081,-0.0095,-0.0109,-0.0093,-0.0125,-0.0131,-0.0134,-0.01,-0.01,-0.01,-0.0089,-0.009,0,0,0,0,0,-0.0113,-0.011,-0.009,-0.0092,-0.0082,-0.0073,-0.007,-0.0063,-0.0065,-0.0068,-0.0077,-0.0095,-0.011,-0.0115,-0.0133,-0.0145,-0.0123,-0.0151,-0.0151,-0.0151,-0.0148,-0.0109,-0.0104,-0.0164,-0.0163,-0.0163,0,0,-0.0126,-0.0113,-0.0113,-0.0096,-0.0087,-0.0081,-0.0071,-0.006,-0.0065,-0.007,-0.0087,-0.0095,-0.0116,-0.013,-0.0138,-0.0137,-0.0122,-0.0154,-0.0153,-0.0151,-0.0111,-0.0104,-0.0098,-0.0165,-0.0165,-0.0165,0,0,-0.0141,-0.0132,-0.0131,-0.0118,-0.0096,-0.0087,-0.0082,-0.007,-0.0072,-0.0084,-0.0092,-0.0092,-0.0126,-0.0127,-0.0136,-0.0151,-0.0126,-0.0168,-0.0151,-0.0113,-0.0106,-0.01,-0.0048,-0.0038,-0.0164,-0.0164,-0.0164,0,-0.0159,-0.0156,-0.013,-0.0123,-0.0119,-0.009,-0.0092,-0.0087,-0.0086,-0.0089,-0.0088,-0.0113,-0.0121,-0.0126,-0.0132,-0.0146,-0.0119,-0.014,-0.0108,-0.0102,-0.0096,-0.0044,-0.0034,-0.0163,-0.0163,-0.0163,-0.0163,0,-0.0168,-0.0169,-0.0165,-0.0149,-0.014,-0.0135,-0.0115,-0.0111,-0.0108,-0.0103,-0.0106,-0.0107,-0.0118,-0.0121,-0.0129,-0.0105,-0.0095,-0.0108,-0.0094,-0.0087,-0.0034,-0.0023,-0.016,-0.0161,-0.0161,-0.0162,0,0,-0.0203,-0.0179,-0.0181,-0.0185,-0.0156,-0.0153,-0.0146,-0.0135,-0.0133,-0.0121,-0.0117,-0.0122,-0.0106,-0.0116,-0.0114,-0.0076,-0.0004,-0.0074,-0.0073,0.0001,0.0098,0.0079,0.0089,-0.0004,-0.0003,-0.0002,0.0127,0,-0.0224,-0.023,-0.0207,-0.022,-0.0223,-0.0193,-0.0192,-0.0176,-0.0159,-0.0146,-0.0118,-0.012,-0.011,-0.0108,-0.0065,-0.0028,0.0023,-0.0036,0.0058,0.0061,0.0063,0.01,0.0003,0.0135,0.0138,0.0139,0.0141,0,-0.0244,-0.0247,-0.0265,-0.0264,-0.0261,-0.0262,-0.0249,-0.0244,-0.0203,-0.0188,-0.0153,-0.0132,-0.0078,-0.0075,0.0034,-0.0004,0.0049,0.009,0.0096,0.0071,0.0062,0.0118,0.016,0.0159,0.0157,0.0156,0.0155,0,-0.0291,-0.0291,-0.0312,-0.0311,-0.0298,-0.0302,-0.0296,-0.0263,-0.0258,-0.021,-0.0189,-0.0123,-0.0092,-0.0008,0.0077,0.0061,0.0204,0.019,0.0232,0.0232,0.0195,0.0187,0.0274,0.0274,0.0274,0.0273,0.0273,0,-0.0326,-0.0345,-0.0339,-0.0352,-0.0377,-0.035,-0.0361,-0.0339,-0.0299,-0.0285,-0.0217,-0.0182,-0.0074,0.0015,0.0095,0.0204,0.0224,0.025,0.0265,0.0208,0.0199,0.0205,0.0195,0.0278,0.0277,0.0276,0.0275,0,-0.0374,-0.0369,-0.0397,-0.0398,-0.0401,-0.0422,-0.041,-0.0408,-0.0361,-0.0332,-0.0317,-0.0213,-0.0094,0.0023,0.0165,0.0218,0.0325,0.0354,0.0305,0.0312,0.0328,0.0318,0.0428,0.0428,0.0428,0.0429,0.0429,0,-0.0398,-0.0416,-0.044,-0.0462,-0.0466,-0.0484,-0.049,-0.0451,-0.0435,-0.0352,-0.0335,-0.0218,-0.0141,0.0064,0.0178,0.0352,0.0353,0.0417,0.0359,0.0341,0.0345,0.0335,0.0325,0.0429,0.043,0.043,0.043,0,-0.0443,-0.0454,-0.0476,-0.0523,-0.0544,-0.0555,-0.0553,-0.0543,-0.0483,-0.0442,-0.0344,-0.0232,-0.0095,0.0056,0.0191,0.0305,0.0383,0.0421,0.0421,0.0366,0.0345,0.0346,0.0336,0.0431,0.0431,0.0431,0.0431,0,-0.0476,-0.0506,-0.0538,-0.0576,-0.0607,-0.061,-0.0602,-0.056,-0.053,-0.0425,-0.0396,-0.0239,-0.0143,0.0033,0.0158,0.0272,0.0287,0.0307,0.0312,0.0312,0.0225,0.0178,0.0241,0,0,0,0,0,-0.0503,-0.0539,-0.0585,-0.0619,-0.0648,-0.066,-0.0635,-0.0608,-0.0546,-0.0487,-0.0437,-0.0308,-0.011,-0.0016,0.0094,0.015,0.0298,0.0281,0.032,0.0438,0.0437,0.035,0,0,0,0,0,0,-0.0522,-0.0574,-0.0594,-0.0644,-0.0674,-0.0692,-0.0677,-0.0631,-0.058,-0.0507,-0.0399,-0.0313,-0.0119,-0.0189,0.008,0.0119,0.0154,0.0385,0.0387,0.0439,0.0438,0.0437,0.0346,0,0,0,0,0]}]]